GFSSGP_850_spd_051.txt.gz
Wind_Speed
8 9 8 6 2 2 2 3 0 3 2 2 1 3 4 4 5 3 11 26 24 25 27 25 21 18 16 14 14 12 10 8 8 8 11 12 13 11 10 10 11 11 10 10 10 10 9 8 7
9 10 9 4 4 4 3 2 1 3 6 5 2 4 2 2 4 4 22 24 26 25 26 24 21 19 17 15 14 12 10 11 9 11 13 13 13 11 9 9 11 12 13 12 11 10 9 8 8
8 12 6 3 3 5 3 3 1 7 13 6 2 3 1 1 4 15 22 25 27 25 26 23 21 18 17 16 13 12 11 10 10 13 15 13 13 12 7 10 11 12 13 13 13 11 10 10 10
6 5 4 3 5 3 4 1 3 9 4 6 0 3 3 2 11 12 24 29 29 25 24 23 21 20 17 15 13 12 8 6 8 14 14 13 13 12 8 10 10 11 11 12 13 12 12 11 10
6 3 2 3 5 2 2 0 4 4 5 3 2 2 3 7 6 9 21 26 29 26 23 23 20 19 17 15 13 11 8 5 7 10 15 14 13 12 10 8 8 9 9 10 10 11 10 10 9
4 2 3 6 6 4 1 2 3 5 5 4 1 2 2 7 8 14 20 22 25 26 21 20 18 18 17 15 13 10 7 7 8 8 9 13 12 10 10 8 8 8 7 7 7 7 7 6 7
4 3 2 5 7 4 3 6 5 3 4 6 3 1 1 9 12 19 18 21 21 23 22 21 18 17 16 14 13 10 8 5 7 8 10 6 3 3 6 7 8 7 7 6 5 5 4 4 4
7 2 2 3 8 5 2 3 7 7 3 5 5 5 3 6 16 19 19 19 20 23 21 20 18 17 17 16 12 9 6 4 5 6 7 7 7 6 6 5 5 7 6 5 4 3 3 3 4
11 3 3 3 5 5 5 1 3 7 8 14 10 14 11 10 19 20 20 20 21 22 20 22 18 17 18 17 14 11 9 7 5 4 6 6 5 5 5 6 6 6 4 3 2 1 1 3 4
8 8 6 2 1 3 6 5 2 4 7 4 14 16 5 15 19 20 20 20 21 22 21 19 17 18 18 18 15 13 10 8 5 4 4 4 4 4 5 5 5 5 4 2 1 1 2 3 5
11 13 10 5 5 6 4 2 2 2 4 4 14 20 5 13 19 20 18 16 15 17 18 18 16 16 17 18 17 13 8 7 7 6 5 5 5 5 5 5 4 4 3 3 3 4 4 5 7
9 23 20 19 6 4 3 3 3 3 3 3 11 16 16 13 19 21 18 16 17 17 15 16 17 17 17 19 18 15 10 6 6 6 5 5 5 5 5 5 5 5 5 5 5 6 6 7 8
7 12 19 29 6 1 4 3 4 14 15 13 12 14 21 7 16 19 17 17 17 16 14 13 14 16 16 18 18 16 12 9 8 7 6 5 4 4 5 6 6 6 6 5 5 6 6 7 8
10 10 23 18 13 13 10 6 4 14 8 10 15 11 19 12 13 17 19 20 19 15 14 12 11 12 13 14 14 13 11 9 8 8 7 6 6 6 5 5 6 6 7 8 8 9 9 9 11
3 8 7 14 19 8 11 15 15 16 19 20 20 15 17 16 9 16 18 17 17 15 14 12 11 11 10 9 10 10 9 8 6 6 8 7 6 6 7 7 7 7 8 10 11 11 13 13 14
4 6 6 5 17 9 14 14 13 14 15 21 21 25 19 16 11 12 17 18 19 18 17 13 13 12 12 10 9 9 9 9 8 7 8 9 9 9 10 10 10 9 10 12 13 14 15 16 17
3 7 8 7 16 9 10 4 6 9 16 28 24 24 22 20 13 10 13 18 18 18 17 17 15 14 12 12 12 13 13 13 11 12 11 11 12 12 14 14 14 13 15 16 17 18 18 20 21
9 5 3 4 8 6 8 2 6 7 14 24 27 30 28 24 15 11 11 15 16 18 17 17 16 15 14 14 15 16 15 15 14 15 14 14 15 16 18 19 19 18 20 21 21 21 22 22 24
7 5 6 3 9 7 8 4 7 11 9 14 21 27 30 28 18 12 12 13 16 16 15 15 15 15 14 14 14 15 16 16 17 17 17 18 19 20 22 23 23 22 22 22 22 23 23 24 24
9 6 3 2 9 7 9 13 13 12 11 18 22 31 32 36 23 12 14 14 17 18 19 19 18 17 17 17 16 17 18 19 19 20 21 23 25 26 26 26 26 26 26 26 25 25 27 27 26
2 8 5 5 4 2 7 6 9 7 12 20 26 29 31 33 27 18 16 16 18 18 20 22 22 21 21 21 22 22 22 22 22 23 23 25 26 27 28 29 28 28 29 29 28 27 25 25 24
3 5 7 10 9 5 2 4 4 12 15 17 26 30 32 34 31 21 16 19 20 19 20 20 19 18 18 18 18 19 19 19 20 20 22 23 23 23 23 24 24 25 26 26 25 24 24 24 24
4 5 5 4 4 3 1 2 4 6 18 18 20 26 32 28 31 29 25 22 22 20 19 19 17 16 16 16 16 17 18 20 21 22 23 23 23 24 25 26 27 26 27 27 27 27 26 24 22
7 6 6 4 2 2 4 4 4 5 8 4 19 29 35 35 33 35 25 24 23 23 21 19 16 16 15 15 16 16 17 18 19 19 19 18 18 18 19 20 20 21 21 21 20 20 21 21 21
4 5 2 1 1 4 1 3 10 6 6 5 7 17 24 33 38 38 31 30 28 26 22 19 17 15 14 14 15 16 17 17 18 19 20 21 21 21 21 22 21 21 21 21 19 18 18 20 21
3 4 4 6 4 3 1 5 5 4 4 7 11 13 13 12 16 28 34 33 30 27 22 18 15 13 13 14 14 15 15 16 17 18 19 20 20 20 20 18 18 17 16 14 13 13 13 15 19
3 1 3 6 3 2 3 4 9 5 5 5 9 10 12 16 18 21 31 32 30 26 20 15 13 13 12 12 13 14 15 15 16 16 16 16 16 15 15 14 14 14 13 13 12 12 14 16 18
3 6 2 2 3 3 2 3 4 2 3 7 7 11 12 11 15 19 27 29 25 20 17 14 12 11 12 13 14 15 16 17 17 16 16 15 14 13 12 12 12 12 13 13 13 12 13 15 16
3 1 4 3 2 3 1 4 6 5 3 6 13 13 8 10 15 21 27 25 23 19 16 14 12 12 13 14 16 18 18 18 18 17 16 15 14 13 13 13 13 12 13 12 13 12 12 12 12
3 3 4 3 4 1 1 6 3 6 5 4 10 8 5 5 14 20 23 23 21 19 17 15 14 14 15 17 18 18 18 18 17 16 15 15 15 15 14 14 13 13 13 12 11 11 11 10 10

GFSSGP_850_spd_054.txt.gz
Wind_Speed
10 11 11 8 5 5 12 6 1 5 4 1 2 3 5 2 6 2 12 22 22 25 22 23 19 16 14 12 10 8 7 7 8 9 11 13 11 11 10 10 11 11 11 11 11 11 10 10 8
11 13 12 3 7 11 11 6 7 4 2 5 3 3 5 4 3 4 17 22 24 24 23 21 21 18 15 14 13 11 9 9 9 12 13 14 10 9 9 11 12 13 12 12 12 11 10 10 9
11 16 8 4 8 13 12 8 4 2 3 4 4 1 1 2 2 11 13 23 24 23 22 21 21 18 15 14 13 10 9 8 11 13 14 14 12 9 9 11 12 13 13 13 12 12 12 11 10
8 7 3 7 15 12 4 8 2 2 4 7 1 4 3 1 4 6 21 24 23 22 21 22 21 19 16 14 11 10 8 6 10 15 16 15 13 7 10 10 11 12 12 13 13 13 12 11 10
11 8 9 9 16 9 6 4 1 3 4 4 1 3 3 2 3 9 20 24 21 20 19 23 20 18 16 14 12 10 7 7 9 12 14 14 12 9 12 9 10 10 11 11 11 10 10 10 9
8 6 11 15 16 6 6 3 2 3 4 3 4 2 4 3 7 12 18 22 21 20 19 21 20 20 17 14 12 10 7 8 10 11 12 11 11 9 10 8 9 8 9 9 9 9 8 7 7
18 9 15 16 12 7 4 3 2 5 5 6 2 1 3 3 8 15 19 19 20 19 19 18 19 18 17 15 12 9 8 8 9 11 11 10 5 5 6 6 6 7 7 7 6 6 5 5 4
10 13 13 9 13 7 7 2 3 2 6 3 3 3 4 2 11 14 20 18 18 19 18 17 16 16 16 15 12 9 10 7 8 8 9 8 5 6 7 6 5 5 3 4 4 3 3 3 3
9 5 15 11 11 8 5 4 2 2 10 11 7 7 6 5 15 16 19 18 18 18 17 17 15 15 15 15 13 10 8 8 7 7 8 6 6 5 6 6 6 6 4 3 2 1 1 1 2
8 4 18 8 4 6 3 4 4 4 9 8 8 11 3 13 17 17 17 19 19 19 17 16 15 15 15 18 16 12 10 8 6 6 7 7 7 7 7 7 6 6 5 4 2 1 2 2 4
14 16 9 8 9 7 2 4 3 8 6 8 9 13 3 12 17 16 14 15 17 18 17 17 16 15 15 17 16 14 10 8 8 8 6 7 7 6 6 6 6 6 6 5 4 4 5 5 6
8 19 22 11 4 4 4 2 1 2 4 4 6 10 9 8 14 16 15 13 15 16 17 17 17 16 17 15 15 13 10 8 8 8 7 6 6 6 7 7 7 7 6 6 6 6 7 7 8
13 8 12 13 4 1 2 4 6 7 4 5 4 6 11 3 8 14 16 16 15 15 16 16 17 17 17 18 15 14 12 10 8 9 8 7 7 6 7 7 8 7 7 7 6 6 6 7 7
17 17 25 21 20 10 9 10 7 18 4 4 3 3 7 8 5 11 17 16 17 17 15 15 15 16 17 16 16 14 12 11 11 10 9 9 8 7 6 6 7 8 8 8 8 9 9 9 10
15 13 13 17 25 11 17 22 23 26 13 13 13 8 6 8 2 8 12 16 16 18 16 15 14 15 15 15 15 15 14 13 11 10 11 10 9 8 8 8 8 8 9 10 11 11 12 13 14
9 12 10 16 24 13 20 21 20 26 17 20 19 12 11 8 8 3 10 14 15 17 18 15 15 14 13 12 12 13 13 12 11 10 10 9 10 10 10 9 9 9 11 12 13 13 14 15 16
12 11 16 10 24 9 17 11 6 5 21 27 26 18 12 13 8 7 7 14 16 17 18 18 17 16 14 14 13 13 13 14 12 12 11 10 11 12 13 13 13 12 14 16 16 17 18 18 16
17 15 16 10 14 14 17 12 4 9 14 25 29 27 23 16 15 9 7 11 17 19 20 20 19 18 17 15 16 17 17 17 16 15 15 14 15 15 16 17 17 17 19 20 21 22 22 22 20
14 13 14 4 8 8 14 13 13 12 9 11 17 22 27 22 20 14 8 10 15 20 23 21 21 19 19 18 19 19 19 19 18 17 17 17 18 19 20 20 21 21 22 22 22 23 24 22 24
15 15 11 7 13 14 11 17 16 16 15 15 18 19 27 21 20 17 9 11 14 18 19 19 18 17 19 18 19 18 16 17 15 17 18 20 21 23 24 25 26 26 26 26 26 26 26 27 27
11 15 13 8 10 9 4 11 16 17 22 20 21 20 22 26 23 19 13 11 14 17 19 21 20 20 21 21 21 19 19 18 18 19 20 21 22 24 25 27 28 28 29 28 28 28 27 28 27
10 10 11 8 9 6 9 4 8 17 20 21 23 20 18 22 21 20 18 12 14 16 18 19 21 22 23 24 24 23 22 21 21 21 21 21 22 23 24 25 25 25 26 26 26 25 25 25 26
5 10 12 10 11 4 8 5 10 4 17 17 21 24 23 19 22 25 25 18 13 18 19 18 18 19 19 20 18 17 17 18 20 21 22 22 23 24 24 24 25 25 25 25 25 24 25 26 27
13 11 9 5 6 6 11 10 4 5 8 11 14 23 27 24 20 20 20 23 20 20 20 21 20 18 18 17 16 17 17 18 19 20 21 21 21 21 21 21 21 21 22 22 22 22 22 22 23
13 16 4 5 5 4 2 8 11 6 8 5 7 9 16 20 22 23 24 23 23 24 25 25 22 21 19 17 17 16 17 18 20 20 21 21 21 22 22 22 23 23 23 23 22 21 21 21 21
14 13 3 6 5 5 3 7 3 2 2 5 8 12 11 10 17 29 37 39 28 28 28 26 23 21 18 17 16 16 17 18 18 18 19 21 22 22 21 20 20 20 19 18 17 16 16 16 16
7 5 2 4 1 3 4 4 11 3 3 3 4 5 9 8 13 17 25 34 32 29 29 25 23 20 17 16 15 16 16 16 17 18 19 20 21 20 19 18 17 16 15 15 14 13 12 13 14
2 10 3 1 4 4 3 4 3 8 5 5 7 8 8 6 10 15 20 22 29 29 27 24 21 18 15 15 15 16 17 18 19 20 20 21 20 19 18 16 15 14 14 14 14 14 14 15 16
4 4 1 0 2 2 1 2 2 8 3 5 7 7 7 4 5 9 13 18 25 26 24 22 18 16 15 15 16 17 18 20 20 20 21 21 20 19 18 16 15 14 13 13 13 14 13 14 14
1 8 12 6 5 1 3 3 4 3 3 3 7 9 7 6 3 7 12 20 23 23 22 19 17 16 16 15 16 18 20 21 21 21 20 20 19 19 18 17 16 15 15 14 14 14 13 13 12

GFSSGP_850_spd_057.txt.gz
Wind_Speed
10 10 11 7 7 7 15 12 2 7 6 0 5 7 7 4 8 4 18 13 21 21 21 21 17 14 12 10 7 6 6 7 7 10 15 9 10 10 11 11 12 12 13 12 11 11 11 11 11
7 11 8 8 8 13 13 14 10 14 3 2 2 5 2 12 12 11 16 18 22 21 20 20 19 17 13 12 9 7 7 7 9 12 15 8 8 9 11 12 13 13 13 13 12 11 11 11 12
8 12 9 5 10 15 14 14 11 5 5 4 3 1 4 6 9 15 12 22 23 21 20 19 20 17 15 13 10 8 7 6 10 13 14 10 8 9 11 12 13 14 13 13 12 12 11 11 12
10 10 7 10 18 18 14 11 9 8 6 7 3 6 7 6 3 5 17 23 22 20 19 20 20 17 16 13 10 7 7 7 11 13 15 13 7 7 10 11 13 13 13 13 12 12 11 11 11
13 15 10 15 23 15 7 8 4 10 7 13 5 7 6 3 4 9 18 21 21 20 18 21 20 17 15 14 12 10 8 8 12 12 15 14 6 8 10 10 11 12 12 12 11 11 10 10 10
14 19 12 16 22 20 8 5 6 8 6 7 7 3 6 4 9 13 18 20 19 19 17 20 19 16 15 13 12 10 8 10 12 14 12 11 8 9 10 8 9 9 10 9 9 8 7 7 7
18 10 18 19 19 13 8 4 7 4 7 4 2 11 5 3 9 20 16 18 18 18 17 19 19 16 14 12 12 9 9 10 12 13 14 11 6 5 4 5 6 6 6 6 6 6 5 4 4
22 7 20 16 15 11 9 6 1 3 3 2 1 4 9 2 12 22 18 17 18 19 16 17 16 16 15 13 10 8 8 10 11 12 10 6 2 2 3 4 4 4 4 3 3 3 3 2 2
15 7 13 13 16 12 9 7 4 2 4 4 4 3 1 6 16 23 19 18 18 19 17 18 16 14 14 13 12 8 8 8 9 9 8 6 2 3 4 5 4 4 3 2 1 1 1 0 2
12 4 20 17 1 12 11 8 7 4 8 8 7 6 3 13 17 17 22 17 19 17 18 16 16 14 15 14 13 10 7 5 5 6 7 4 6 6 7 5 5 5 4 3 2 2 2 3 4
11 19 5 10 10 11 7 8 4 9 5 7 7 9 4 16 18 16 15 15 17 16 14 15 16 19 15 15 16 13 9 5 7 6 6 6 7 7 7 5 7 6 6 5 5 5 5 4 5
14 21 9 11 9 9 7 8 6 2 11 6 7 9 3 10 18 17 14 14 16 17 17 17 15 16 17 15 14 13 7 8 7 8 8 8 7 8 6 6 6 6 7 5 6 5 6 7 7
7 21 23 21 4 9 6 2 2 5 5 1 3 5 8 5 11 15 15 14 14 16 17 17 15 13 16 13 12 12 12 10 8 8 8 7 7 7 7 7 7 6 7 7 6 6 6 6 6
12 10 18 13 14 3 1 5 8 10 8 4 2 1 5 6 6 10 16 16 17 15 16 16 17 16 16 17 15 16 13 10 9 9 9 9 7 7 6 6 7 8 8 7 7 7 7 7 8
32 7 13 13 12 6 4 9 16 21 12 8 8 7 4 3 3 7 10 15 13 13 14 14 13 12 12 12 13 12 10 12 11 10 10 11 10 8 8 7 7 7 7 8 8 9 10 10 10
15 9 10 14 17 16 13 16 18 24 23 26 16 13 8 6 2 1 6 12 14 14 15 15 13 14 14 13 13 13 13 13 11 10 10 11 11 10 9 8 8 8 8 9 10 9 10 11 12
15 13 19 15 20 12 16 10 10 20 28 33 26 20 15 10 7 3 2 8 12 15 16 16 16 14 14 14 12 12 11 12 11 10 10 10 10 11 11 10 10 10 11 12 12 12 13 14 15
19 18 15 12 15 15 16 14 5 10 18 31 34 27 22 19 13 9 5 7 10 14 16 17 17 16 16 15 15 12 12 12 11 11 11 10 10 12 12 12 13 13 14 15 15 16 17 17 16
18 18 15 11 10 16 13 13 15 12 13 16 36 36 30 28 17 12 14 11 11 13 16 19 20 19 19 19 17 15 14 13 13 13 14 14 14 14 15 16 15 14 16 17 17 18 19 21 19
15 18 11 9 9 13 11 15 19 19 20 18 16 30 32 28 25 18 17 12 14 14 15 17 19 19 19 18 16 14 13 13 11 12 16 16 16 17 18 20 20 21 22 23 23 22 21 23 23
10 17 16 13 11 10 6 10 20 21 22 19 21 16 21 25 28 21 17 14 15 17 18 16 17 17 17 18 17 19 19 17 17 18 18 19 19 20 22 23 23 25 25 27 28 27 25 24 22
14 11 9 10 13 7 14 5 19 18 19 19 21 19 18 16 25 26 18 19 14 17 18 20 22 21 21 21 21 20 20 18 15 18 20 20 21 21 22 23 24 25 26 27 26 25 24 23 23
6 6 7 9 12 7 12 6 11 10 11 16 18 21 21 18 16 18 18 20 14 15 16 18 20 22 22 23 23 24 22 22 22 20 19 19 21 22 23 24 25 25 25 25 25 24 23 22 23
10 11 8 7 9 8 13 10 8 6 3 5 11 17 20 21 19 17 20 19 21 17 12 16 18 19 19 20 20 20 20 18 18 19 18 20 21 22 23 24 23 23 23 23 23 23 23 22 24
13 16 5 4 3 4 4 9 10 1 5 5 3 2 7 13 20 21 20 22 20 20 18 16 19 20 18 19 18 19 18 17 17 18 19 21 22 23 23 24 24 25 25 26 26 25 24 23 23
12 14 4 5 6 10 6 6 4 3 4 2 3 6 7 9 9 16 20 21 22 21 18 17 19 19 20 18 21 17 16 16 18 19 20 21 22 22 23 23 23 24 24 23 22 20 19 18 16
13 11 4 3 3 1 6 6 7 3 2 3 4 4 3 5 6 9 14 19 23 25 20 19 20 20 20 19 17 16 16 17 18 19 19 20 22 23 23 22 21 20 19 19 18 17 16 14 13
6 9 3 1 4 4 4 3 1 8 8 9 12 13 12 5 5 8 9 13 20 25 29 30 27 22 20 18 17 16 16 16 17 19 20 22 23 24 22 21 20 19 18 16 16 17 17 16 15
5 4 3 1 3 3 1 5 9 9 7 7 8 10 13 11 6 5 8 12 16 21 25 27 29 28 24 21 18 17 16 17 19 21 22 23 24 23 22 21 20 19 17 15 16 16 16 15 15
8 9 11 5 4 3 4 1 2 8 2 1 1 7 14 10 7 5 6 10 15 18 22 24 25 22 20 18 17 17 17 19 21 22 23 23 22 23 21 21 20 19 17 16 16 16 15 14 13

GFSSGP_850_spd_063.txt.gz
Wind_Speed
16 9 9 7 2 3 4 7 5 12 9 7 8 9 9 16 2 4 22 20 21 27 26 23 20 19 16 14 12 13 16 20 18 14 13 13 15 15 15 16 16 14 12 14 16 17 19 19 20
14 11 7 3 3 2 4 10 5 17 29 10 12 18 8 3 9 19 23 15 23 28 27 25 22 20 17 14 13 15 18 20 17 14 15 16 17 17 17 17 16 16 18 18 18 18 18 18 19
18 14 6 4 4 5 5 7 16 11 18 19 5 11 4 5 10 7 17 19 26 28 27 25 22 20 17 15 15 16 18 19 18 15 15 16 17 18 19 19 19 18 18 18 18 17 18 17 17
17 13 6 3 15 9 6 6 10 11 4 26 5 7 7 8 5 20 19 17 26 27 26 25 22 19 17 15 15 17 18 19 18 16 15 16 16 18 18 19 18 18 18 17 16 16 16 15 15
20 6 3 4 7 6 2 10 4 4 10 17 21 9 11 9 20 24 17 13 22 26 25 24 21 19 17 16 15 16 19 20 18 17 14 14 16 17 17 17 17 17 16 15 14 13 13 12 11
14 7 3 6 11 10 3 6 5 2 12 16 15 14 6 12 21 24 19 12 14 22 24 24 19 18 16 15 15 16 18 19 20 17 12 11 13 15 15 15 15 14 13 12 11 10 9 9 9
10 3 5 6 4 5 6 13 5 7 5 7 14 6 9 12 15 20 21 15 14 16 21 22 20 18 17 16 14 15 18 18 19 17 11 13 12 12 11 12 12 11 10 9 8 7 6 6 6
19 2 4 3 9 4 12 23 2 6 4 10 9 6 6 23 7 15 12 18 18 16 15 23 22 19 18 16 13 14 17 17 17 16 14 12 11 10 10 9 9 8 7 6 5 4 4 3 4
21 5 6 5 4 7 14 6 4 5 14 14 7 12 19 27 22 24 16 20 18 14 15 22 22 20 18 17 14 13 15 16 17 15 11 7 8 8 8 7 6 6 5 4 3 2 2 1 1
8 6 7 2 1 10 15 12 8 5 15 10 18 16 24 30 29 20 17 22 21 17 13 18 16 18 19 17 16 13 13 14 14 12 9 7 8 7 6 6 6 5 4 3 2 1 1 1 2
14 7 3 2 4 16 14 5 7 13 4 8 16 16 21 31 35 31 24 20 21 18 18 16 17 13 15 16 14 12 11 12 12 10 10 9 6 3 3 3 4 5 5 4 3 2 2 2 5
5 13 16 1 2 6 6 10 5 11 10 16 11 12 20 26 31 31 32 28 19 21 19 16 18 18 14 13 11 10 9 13 12 10 10 10 7 7 6 5 4 3 4 3 4 2 4 4 5
8 4 17 13 3 6 11 8 9 19 18 18 14 10 20 24 27 28 27 25 23 22 22 19 23 15 20 15 11 9 8 12 5 8 7 9 11 9 9 7 5 4 4 3 4 3 4 6 7
9 11 6 18 11 6 6 5 6 13 15 15 15 13 14 19 21 23 29 29 23 25 23 19 24 18 17 13 10 12 12 11 9 13 10 11 11 8 9 8 6 5 5 4 5 6 6 6 8
16 10 6 10 10 4 7 3 1 9 14 13 14 12 10 10 15 20 26 30 26 25 23 23 22 23 21 18 16 15 15 15 14 13 12 10 13 9 9 9 7 6 7 7 8 8 9 11 11
7 1 5 5 5 3 6 9 5 8 5 7 10 7 10 8 7 12 17 26 25 23 26 24 24 26 26 24 21 19 17 18 16 16 15 12 11 12 10 9 9 8 7 7 7 9 11 10 10
2 3 3 4 3 4 2 2 10 14 16 16 12 10 9 13 10 8 10 16 25 26 26 28 27 26 24 22 21 21 18 19 17 18 16 13 10 12 12 10 9 9 8 9 9 9 10 12 14
8 7 5 7 1 3 3 6 4 19 19 21 21 20 16 13 16 12 10 12 18 23 22 22 23 23 21 21 21 20 20 20 20 22 17 13 11 10 12 11 10 9 11 12 13 15 14 14 17
10 9 8 5 8 5 14 12 10 12 17 19 19 24 29 22 15 18 14 12 15 20 21 22 24 23 24 25 24 21 23 27 22 19 15 14 13 11 12 12 11 13 15 15 16 16 16 17 17
10 12 5 7 11 10 9 11 8 9 8 21 22 20 19 26 26 19 22 19 17 15 21 23 25 24 24 24 23 21 18 21 19 19 16 17 17 16 14 15 16 17 16 17 17 18 20 21 21
4 7 7 9 9 6 7 5 7 9 14 18 19 19 19 21 25 29 27 26 20 19 20 23 23 25 24 24 23 24 22 19 20 20 22 22 23 21 19 18 17 18 18 20 21 22 23 23 23
5 13 13 10 7 4 5 3 6 15 10 11 22 20 21 20 14 31 28 30 26 22 19 24 25 25 24 25 26 27 25 22 21 21 23 23 21 18 19 18 19 21 20 20 20 22 22 22 23
7 17 14 12 5 4 2 2 6 6 11 12 18 27 20 17 14 16 32 30 30 25 23 23 27 25 26 25 25 22 22 23 23 22 23 22 21 20 18 17 17 19 19 20 22 22 22 21 21
1 11 9 3 1 2 6 5 5 4 7 5 7 26 25 19 18 15 13 21 30 27 25 25 26 27 29 27 25 23 24 24 25 24 22 21 21 19 17 16 18 19 21 23 23 22 22 22 22
4 7 3 2 3 3 2 3 7 4 4 6 9 10 9 4 20 18 18 17 27 23 21 23 24 25 27 29 29 28 26 26 27 23 18 19 19 18 18 17 19 21 22 23 23 23 22 22 23
1 3 4 4 3 3 1 5 4 3 8 11 11 10 8 6 3 3 15 19 20 20 20 20 21 23 23 23 24 24 23 21 21 19 17 18 21 18 19 19 21 22 23 23 22 23 22 21 21
2 4 3 5 3 4 3 3 4 3 7 14 17 18 15 8 6 4 3 20 22 22 22 23 23 20 20 21 21 19 19 18 18 16 13 15 17 17 17 19 21 22 23 23 23 23 21 21 19
5 3 3 3 3 3 3 3 3 5 8 8 9 11 12 11 9 6 3 3 12 16 19 19 22 22 22 20 18 14 11 14 15 14 15 17 16 17 19 21 23 23 23 23 23 23 21 19 17
5 2 3 4 3 3 2 4 5 10 9 9 6 4 5 7 9 12 9 4 12 18 22 23 23 24 25 23 22 20 19 23 19 15 16 17 19 21 23 24 26 24 24 22 22 21 20 18 18
0 1 1 3 3 1 3 3 3 7 8 13 9 4 2 3 7 10 12 13 11 12 18 21 24 26 27 26 26 23 23 23 23 24 31 28 25 24 25 27 28 26 24 22 22 22 21 19 20

GFSSGP_850_spd_066.txt.gz
Wind_Speed
11 11 10 8 4 0 3 6 2 5 2 4 4 2 7 8 1 3 16 28 26 30 28 25 22 19 18 17 15 17 20 18 14 13 14 16 18 19 18 16 14 12 13 17 19 19 19 18 18
11 12 10 4 4 4 5 4 0 8 14 7 8 11 5 3 3 14 25 19 27 30 28 25 22 20 18 16 17 20 20 17 14 15 17 18 18 19 18 15 12 16 18 19 20 19 19 18 17
13 15 5 4 4 8 5 6 9 14 16 21 1 7 2 4 11 18 12 27 30 31 28 25 23 20 18 17 18 21 20 17 16 17 18 19 20 20 20 19 21 20 20 19 19 19 18 16 15
11 15 6 3 11 7 8 4 6 15 17 27 4 4 8 3 6 14 21 27 32 30 28 25 23 20 19 19 20 22 21 18 18 19 19 20 20 21 21 21 21 20 20 19 18 17 16 15 13
20 7 5 4 9 4 4 3 15 12 20 23 18 2 1 10 11 19 18 28 29 29 27 24 22 20 19 19 20 22 22 20 18 18 19 20 20 20 20 20 20 19 18 17 16 14 13 12 10
13 9 7 7 11 5 5 7 5 8 24 32 29 15 4 8 21 23 18 21 26 28 26 24 21 19 19 18 19 22 23 21 17 17 17 18 18 19 19 19 18 17 15 14 13 12 11 10 8
11 4 9 12 4 4 7 19 5 3 11 3 24 18 18 12 17 18 19 16 23 25 26 23 21 19 17 18 19 21 22 21 18 16 14 15 15 15 15 14 14 13 12 10 9 8 7 7 6
15 1 6 7 5 6 10 24 9 3 6 11 14 8 13 20 5 10 21 21 20 20 22 21 20 19 18 16 17 20 20 21 19 15 16 15 13 13 12 12 11 11 9 8 7 6 5 4 4
18 6 9 8 8 5 13 6 3 4 5 8 12 20 29 29 29 16 20 22 22 19 17 19 20 19 18 16 15 20 20 21 18 16 14 13 12 11 10 10 9 8 7 6 5 4 3 2 1
12 9 8 5 6 5 9 6 13 6 5 5 16 26 35 41 42 35 21 21 21 20 16 20 20 20 19 16 15 17 19 19 18 16 12 11 10 10 9 8 8 7 6 5 5 4 3 2 0
11 9 4 5 2 5 9 7 5 19 1 7 19 34 37 33 32 31 30 17 19 16 15 19 19 19 18 17 15 15 16 17 17 14 12 10 10 9 9 8 8 8 7 6 5 4 3 2 1
7 11 15 3 4 4 7 13 6 5 7 11 20 31 37 33 31 31 33 28 17 20 16 19 18 15 15 15 13 12 12 15 15 14 15 13 10 9 8 8 7 7 7 6 6 4 3 1 1
5 12 14 12 4 8 5 5 9 16 16 16 12 18 34 34 36 33 31 33 28 21 22 20 18 19 17 14 12 10 11 13 14 12 12 11 10 8 7 8 8 7 7 6 5 4 3 2 3
4 12 16 12 5 5 4 4 7 14 16 17 11 10 22 29 30 32 36 32 29 26 25 21 19 21 20 20 14 11 11 12 14 12 11 9 10 9 10 11 9 8 7 6 4 4 4 5 6
8 7 7 11 5 4 7 4 5 16 16 17 12 9 14 24 29 30 29 28 27 29 27 24 22 22 21 22 15 13 13 14 14 12 11 10 10 12 11 12 10 7 6 5 6 7 7 8 9
5 4 5 3 6 5 5 5 3 12 15 14 12 10 9 10 24 24 28 30 29 27 29 26 28 29 27 22 18 15 18 17 15 14 13 13 12 13 12 12 11 8 7 7 7 8 9 10 10
4 5 8 1 6 1 4 4 5 11 9 8 9 10 11 10 11 13 22 26 27 26 26 30 32 31 29 25 24 22 22 20 20 18 19 16 13 12 14 13 11 10 9 8 8 9 9 10 12
9 5 4 6 7 4 7 9 5 7 13 13 13 12 11 14 12 9 10 17 25 27 24 25 27 27 24 24 25 24 25 23 24 22 21 18 14 12 14 14 13 11 10 11 12 13 14 16 16
10 9 8 10 10 5 7 8 7 8 6 13 19 23 21 16 13 14 11 10 19 23 27 26 31 31 29 27 30 31 30 28 24 24 21 19 17 15 12 14 12 11 13 14 15 17 18 17 17
9 12 6 7 12 5 6 11 10 6 6 10 21 21 24 28 20 17 19 17 16 19 22 24 26 27 28 29 32 30 28 27 28 24 23 21 20 19 17 16 16 16 16 16 16 18 19 21 19
9 12 9 8 6 2 7 5 14 7 10 18 17 21 19 23 26 32 30 25 21 20 20 22 25 26 28 28 28 27 25 23 26 27 24 22 21 21 19 18 18 19 20 21 21 21 23 24 25
5 4 5 16 10 4 3 2 7 13 12 6 21 21 17 18 19 26 27 31 28 24 22 22 24 26 29 29 30 29 26 24 24 25 25 24 23 22 23 23 22 22 21 23 23 24 25 25 25
3 7 5 12 7 2 3 1 5 2 7 14 16 26 25 23 19 23 19 31 33 29 25 26 23 25 26 28 30 28 26 25 22 22 25 28 26 25 21 22 21 20 21 22 22 23 24 24 24
6 9 11 5 3 2 6 4 5 2 6 5 13 22 25 24 22 20 16 18 34 31 28 28 25 25 25 27 28 27 28 28 27 26 27 24 18 22 24 24 22 19 19 21 23 24 23 23 23
2 7 3 2 0 2 3 4 7 5 3 4 7 5 5 16 24 20 15 13 26 28 26 28 26 25 26 30 30 29 30 26 26 25 28 24 21 27 27 21 19 18 21 22 22 23 23 24 24
8 4 4 4 5 4 3 5 4 3 10 15 13 10 10 9 6 3 11 14 13 18 23 23 22 24 26 28 29 31 29 29 27 27 26 25 24 23 20 18 18 19 22 23 24 24 25 24 24
3 3 3 6 4 4 3 2 2 6 6 13 14 16 13 9 7 5 3 7 14 16 19 20 19 20 21 22 24 24 25 28 29 27 22 18 18 18 15 17 18 20 22 26 26 26 25 25 24
5 4 2 3 3 3 2 1 3 4 4 4 7 11 12 13 15 14 8 4 8 14 15 17 18 18 19 19 19 19 18 18 17 15 13 16 19 18 19 18 19 22 23 24 25 26 25 24 23
5 3 5 4 2 3 2 4 3 7 7 7 6 7 10 13 15 16 15 14 10 8 15 17 18 19 19 21 21 19 19 19 18 19 23 23 21 21 20 23 23 25 24 25 25 25 25 23 21
1 1 3 4 1 2 3 4 3 4 4 10 9 12 6 9 10 11 12 13 13 14 14 15 18 20 21 22 22 22 21 21 22 21 21 21 20 24 21 24 23 23 23 24 23 22 22 22 20